Regional Weather Roundup
Issued by NWS

Home | Current Version | Previous Version | Graphics & Text | Print | Product List | Glossary On
Versions: 1 2 3 4 5 6 7 8 9 10 11 12 13 14 15 16 17 18 19 20 21 22 23 24 25 26 27
000
ASUS45 KSLC 232310
RWRUT

UTAH REGIONAL WEATHER ROUNDUP
NATIONAL WEATHER SERVICE SALT LAKE CITY UT
400 PM MST MON JAN 23 2017

UTZ001>011-023>025-240000-

NORTHERN UTAH

CITY           SKY/WX    TMP DP  RH WIND       PRES   REMARKS
BRIGHAM CITY     N/A     33  31  92 SW14      29.49R WCI  23
HILL AFB       LGT SNOW  31  30  96 SW16      29.51R VSB 3/4 WCI  20
LOGAN          LGT SNOW  33  31  92 S20       29.43R FOG     WCI  21
OGDEN          LGT SNOW  32  31  96 SW20G25   29.51R VSB 1   WCI  20
SALT LAKE CITY CLOUDY    34  32  92 NE5       29.52R WCI  30
TOOELE VALLEY  CLOUDY    36  32  87 S14       29.54R WCI  27
WENDOVER       CLOUDY    36  25  64 NW7       29.56R WCI  30
HEBER CITY     LGT SNOW  30  27  86 S12       29.46R VSB 1   WCI  21
WEST JORDAN    CLOUDY    33  33 100 CALM      29.53R

$$

UTZ011>015-024>027-240000-

CENTRAL/NORTHEAST UTAH

CITY           SKY/WX    TMP DP  RH WIND       PRES   REMARKS
PROVO AIRPORT  LGT SNOW  33  31  92 SE6       29.56R FOG     WCI  28
MOAB/CANYONLAN CLOUDY    43  40  89 S14       29.54R
DELTA          CLOUDY    34  30  86 MISG      29.57R
PRICE          PTSUNNY   34  28  79 NE8       29.49R WCI  27
RICHFIELD      MOSUNNY   37  25  60 S18       29.58S WCI  27
ROOSEVELT      CLOUDY    32  28  86 CALM      29.52R
VERNAL         CLOUDY    31  30  96 S3        29.50R

$$

UTZ013>016-019>022-027-240000-

SOUTHERN UTAH

CITY           SKY/WX    TMP DP  RH WIND       PRES   REMARKS
BRYCE CANYON   PTSUNNY   24  14  65 SW23      29.59S WCI   9
CEDAR CITY     SNOW      28  25  88 W21G29    29.63R VSB 1/2 WCI  15
MILFORD        CLOUDY    36  29  75 SW22G35   29.59R WCI  25
ST GEORGE      CLOUDY    48  28  46 W15       29.67S
HANKSVILLE     MOSUNNY   45  21  39 MISG      29.57S
KANAB          MOSUNNY   36  32  87 SW13      29.70R WCI  27
BLANDING       CLOUDY    31  29  92 W17G23    29.73R WCI  20

$$

REGIONAL REPORTS     COLORADO/ARIZONA

CITY           SKY/WX    TMP DP  RH WIND       PRES   REMARKS
CRAIG, CO      CLOUDY    39  24  55 SW9G20    29.46F WCI  33
GRAND JUNCTION CLOUDY    33  33 100 N12       29.57S WCI  24
RIFLE, CO      LGT RAIN  41  30  65 NW3       29.50F
MONTROSE, CO   LGT RAIN  42  27  55 SW32G51   29.59R
CORTEZ, CO     LGT SNOW  34  33  96 SW17G31   29.67S VSB 1   WCI  23
COLORADO CITY    N/A     37  32  81 SW18      29.68F WCI  27
PAGE, AZ       CLOUDY    43  28  55 VRB7      29.65S
GRAND CANYON   LGT SNOW  29  28  96 SW14      29.67F VSB 3/4 WCI  18
KINGMAN, AZ    CLOUDY    45  28  51 SW21G29   29.72S
FLAGSTAFF, AZ  LGT SNOW  29  27  92 SW18G30   29.67F VSB 1   WCI  16

$$

REGIONAL REPORTS    NEVADA/IDAHO/WYOMING

CITY           SKY/WX    TMP DP  RH WIND       PRES   REMARKS
LAS VEGAS, NV  PTSUNNY   51  31  46 SW22G30   29.67R
ELY, NY        CLOUDY    28  13  53 VRB5      29.61R WCI  23
ELKO, NV       PTSUNNY   31  21  66 W10       29.63R WCI  22
POCATELLO, ID  LGT SNOW  31  29  92 N13       29.43R VSB 1   WCI  21
BURLEY, ID     HVY SNOW  29  26  89 W18G25    29.51R VSB 1/4 WCI  16
FORT BRIDGER,  CLOUDY    22  22 100 N6        29.43F FOG     WCI  15
EVANSTON, WY   LGT SNOW  26  21  81 SW25      29.40R WCI  11
ROCK SPRINGS,  FOG       29  27  92 E8        29.41F VSB<1/4 WCI  21
KEMMERER, WY     N/A     28  19  69 N6        29.41S WCI  22

$$




USA.gov is the U.S. government's official web portal to all federal, state and local government web resources and services.